World > North America > United States > Washington

Elbe, Washington Regional Weather

Lat: 46.77N, Lon: 122.19W
Wx Zone: WAZ555Web Search

Our weather pages are very print friendly and they make great conversation starters.

Feedback


°F Click to change Elbe hourly weather to Imperial units.Click to change Elbe hourly weather to Metric units. °C
Elbe Weather Map
UTC Time: 4/16/2021, 10:19
Your Time:

Elbe, WA Regional Weather

Expires:202104161100;;635133
ASUS46 KSEW 161010
RWRWA 

WASHINGTON REGIONAL WEATHER ROUNDUP
NATIONAL WEATHER SERVICE SEATTLE WA
300 AM PDT FRI APR 16 2021

NOTE:"FAIR" INDICATES FEW OR NO CLOUDS BELOW 12,000 FEET WITH NO 
SIGNIFICANT WEATHER AND/OR OBSTRUCTIONS TO VISIBILITY.


WAZ507-509-555>559-161100-
SEATTLE, TACOMA, EVERETT, AND VICINITY
  
CITY           SKY/WX    TMP DP  RH WIND       PRES   REMARKS
EVERETT        CLEAR     53  34  48 E5        30.17S                  
BOEING FIELD   CLEAR     51  38  60 CALM      30.16S                  
RENTON         CLEAR     49  38  65 CALM      30.16S                  
SEATAC AIRPORT CLEAR     53  36  52 CALM      30.16S                  
JBLM-MCCHORD   CLEAR     41  37  85 CALM      30.16S                  
PUYALLUP       FAIR      43  39  87 CALM      30.16S                  
BREMERTON      CLEAR     42  34  73 SW5       30.16S                  
JBLM-FT LEWIS  CLEAR     41  33  73 CALM      30.15S                  
TACOMA NARROWS CLEAR     52  36  54 CALM      30.16S                  
$$
 

SKY/WX - Weather  TMP - Temperature  DP - Dew Point  RH - Relative Humidity
WIND - Wind Direction/Speed PRES - Barometric Pressure VSB - Visibility
WCI - Wind Chill Index E13G22 Wind - East Wind 13 mph/Gusts of 22 mph